Location: ????????
(55.6189°N, 38.3031°E)
Time: 17:35:27
(UTC+00:00)

SL-16 R/B - Pass Details

Date: 23 February 2020
Orbit: 843 x 847 km, 71.0° (Epoch: 04 April)

Event Time Altitude Azimuth Distance (km) Brightness Sun altitude
Exits shadow 23:43:54 23° 78° (ENE) 1,719 4.1 -38.1°
Drops below altitude 10° 23:46:55 10° 50° (NE) 2,476 5.3 -37.8°
Sets 23:49:42 0° 38° (NE) 3,416 6.3 -37.6°
